Regional Weather Roundup
Issued by NWS

Home | Current Version | Previous Version | Text Only | Print | Product List | Glossary Off
Versions: 1 2 3 4 5 6 7 8 9 10 11 12 13 14 15 16 17 18 19 20 21 22 23 24 25 26 27 28 29 30 31 32 33 34 35 36 37 38 39 40 41 42 43 44 45 46 47 48 49 50

975
ASUS43 KMKX 022011
RWRWI

WISCONSIN REGIONAL WEATHER ROUNDUP
NATIONAL WEATHER SERVICE MILWAUKEE/SULLIVAN WI
300 PM CDT MON MAY 02 2016

NOTE: "FAIR" INDICATES FEW OR NO CLOUDS BELOW 12,000 FEET WITH NO
SIGNIFICANT WEATHER AND/OR OBSTRUCTIONS TO VISIBILITY.

WIZ001-002-006>008-014>016-023>028-022100-
NORTHWEST WISCONSIN

CITY           SKY/WX    TMP DP  RH WIND       PRES   REMARKS
SUPERIOR ARPT  SUNNY     63  36  37 E8        30.03F
ASHLAND        SUNNY     63  39  41 N10       30.06F
HAYWARD        SUNNY     64  31  28 S7        30.03F
SIREN          SUNNY     65  28  24 CALM      30.03F
CUMBERLAND     SUNNY     61  28  29 S5        30.03F
RICE LAKE      SUNNY     64  29  26 W7        30.05F
CHETEK         MOSUNNY   64  36  36 N6        30.04F
LADYSMITH      SUNNY     63  32  30 S3        30.06F
EAU CLAIRE     PTSUNNY   65  32  29 SW7       30.04F
MENOMONIE      MOSUNNY   69  34  27 CALM      30.05F
NEW RICHMOND   MOSUNNY   64  33  31 E6        30.05F
OSCEOLA        SUNNY     65  32  29 CALM      30.07F
$$

WIZ003>005-009-010-017-018-022100-
NORTH CENTRAL WISCONSIN

CITY           SKY/WX    TMP DP  RH WIND       PRES   REMARKS
MANITOWISH WTR CLOUDY    59  31  35 CALM      30.03F
ARBOR VITAE    CLOUDY    59  29  31 E3        30.03F
WOODRUFF       CLOUDY    59  29  31 E3        30.03F
RHINELANDER    CLOUDY    60  30  32 CALM      30.05F
EAGLE RIVER    SUNNY     58  25  28 CALM      30.03F
LAND O LAKES   PTSUNNY   59  27  29 NW3       30.04F
PHILLIPS       CLOUDY    60  32  35 CALM      30.04S
TOMAHAWK       PTSUNNY   62  30  29 NW3       30.04F
MEDFORD        MOSUNNY   60  36  40 CALM      30.04F
MERRILL        PTSUNNY   63  34  34 NW9       30.05F
$$

WIZ029-030-035-036-043>047-022100-
CENTRAL WISCONSIN

CITY           SKY/WX    TMP DP  RH WIND       PRES   REMARKS
WAUSAU         PTSUNNY   64  32  30 NW6       30.02F
MOSINEE        PTSUNNY   61  32  33 W7        30.05F
MARSHFIELD     MOSUNNY   64  31  28 CALM      30.04F
STEVENS POINT  CLOUDY    60  31  33 CALM      30.04F
WAUPACA        SUNNY     66  27  23 W3        30.04F
WAUTOMA        MOSUNNY   64  29  26 NE8       30.04F
WISC RAPIDS    MOSUNNY   63  29  27 VRB6      30.06F
CAMP DOUGLAS   PTSUNNY   63  36  36 VRB2      30.04F
$$

WIZ011>013-019>022-031-037>040-048>050-022100-
NORTHEAST WISCONSIN

CITY           SKY/WX    TMP DP  RH WIND       PRES   REMARKS
ANTIGO         PTSUNNY   60  33  35 CALM      30.04F
SHAWANO        SUNNY     66  29  25 CALM      30.03F
OCONTO         SUNNY     60  33  35 E9        30.04F
STURGEON BAY   SUNNY     61  34  36 E8        30.08F
GREEN BAY      LGT RAIN  62  32  32 E6        30.05F
MANITOWOC      SUNNY     60  33  36 MISG      30.06F
APPLETON       MOSUNNY   61  27  27 VRB5      30.04S
CLINTONVILLE   MOSUNNY   64  32  29 E6        30.03F
OSHKOSH        SUNNY     61  32  33 NE8       30.05F
$$

WIZ032>034-041-042-053>061-022100-
SOUTHWEST WISCONSIN

CITY           SKY/WX    TMP DP  RH WIND       PRES   REMARKS
LA CROSSE      PTSUNNY   67  35  30 N6        30.05F
SPARTA         CLOUDY    62  35  36 NE7       30.06F
VIROQUA        CLOUDY    60  36  41 NE7       30.06F
BOSCOBEL       PTSUNNY   65  34  31 W5        30.06S
PRAIRIE DU CHI CLOUDY    60  33  36 S5        30.06S
PLATTEVILLE    PTSUNNY   60  37  43 N8        30.06F
$$

WIZ056-057-062-063-064-067-068-022100-
SOUTH CENTRAL WISCONSIN

CITY           SKY/WX    TMP DP  RH WIND       PRES   REMARKS
REEDSBURG      PTSUNNY   63  35  36 NW7       30.05F
BARABOO/DELLS  PTSUNNY   62  29  28 NW6       30.05S
LONE ROCK      CLOUDY    64  33  31 N6        30.05F
MINERAL POINT  PTSUNNY   61  30  31 NE6       30.06F
MADISON        PTSUNNY   61  33  35 N7        30.05F
MIDDLETON      PTSUNNY   62  32  32 N7        30.05F
WATERTOWN      CLOUDY    60  37  41 E10       30.04F
MONROE         CLOUDY    57  36  44 NE9G16    30.05S
JANESVILLE     CLOUDY    61  34  36 NE10      30.05S
$$

WIZ051-052-058>065-066-070>072-022100-
SOUTHEAST WISCONSIN

CITY           SKY/WX    TMP DP  RH WIND       PRES   REMARKS
MILWAUKEE      PTSUNNY   57  36  45 NE14G21   30.06F
WAUKESHA       MOSUNNY   57  34  41 NE17      30.05F
MILWAUKEE/TIMM SUNNY     59  27  29 NE12G18   30.06F
RACINE         SUNNY     57  35  43 N13       30.07F
BURLINGTON     SUNNY     60  32  35 NE10      30.04F
KENOSHA        SUNNY     60  36  40 NE13      30.05F
FOND DU LAC    SUNNY     62  35  36 N9        30.05F
SHEBOYGAN      SUNNY     59  37  44 NE14      30.06S
WEST BEND      CLOUDY    59  32  36 NE13      30.04F
JUNEAU         MOSUNNY   61  34  36 NE10      30.05F
$$

LSZ147-162-022100-
LAKE SUPERIOR

STATION/POSITION TIME  TEMP    WIND        PRES    WAVE
                       AIR SEA DIR/SP/G            HT/PER
                 (UTC) (F)     (DEG/KT/KT) (MB)    (FT/S)
W MID LAKE BUOY  1950   40 37  170/  2/  2 1019.3F   0
DEVILS ISLAND    2000   53     130/  5/  7 1018.1F
SAXON HARBOR     1940   45      10/  2/  3 1018.3F
$$

LMZ867-665-643>646-022100-
LAKE MICHIGAN

STATION/POSITION TIME  TEMP    WIND        PRES    WAVE
                       AIR SEA DIR/SP/G            HT/PER
                 (UTC) (F)     (DEG/KT/KT) (MB)    (FT/S)
CHAMBERS ISLAND  1900   55      60/  7/  9 1018.3S
N MID LAKE BUOY  1950   42 40  230/  4/  4 1017.8F   0
NORTHPORT PIER   1900   46     140/  7/  7 1018.3S
KEWAUNEE LAKESHO 1900   46     100/  4/  5 1017.9F
SHEBOYGAN LAKESH 2000   47      40/  7/  8 1018.6F
PORT WASHINGTON  1900   50      50/  5/  7 1019.0F
S MID LAKE BUOY  1950   42 41  310/  2/  4 1018.0F   1/ 3
KENOSHA   LAKESH 2000   47      40/ 11/ 13 1017.6F
$$

TC  - TEMPERATURE IN CELSIUS
VSB - VISIBILITY IN STATUTE MILES
WCI - WIND CHILL INDEX
HX  - HEAT INDEX





USA.gov is the U.S. government's official web portal to all federal, state and local government web resources and services.